sat.trackr.live / text

‹ back to catalog

GEESAT-4 09

NORAD 65127 · 2025-170J

PAYLOAD ACTIVE UNKNOWN

§ Identity

Operator
Country
PRC
Launch date
2025-08-08
Launch site
YSLA
Launch vehicle
Mass (kg)
RCS (m²)

External: N2YO · Heavens-Above · Gunter

§ Orbital elements

Epoch: 2026-05-25T03:33:15.352704Z

Period
97.21 min
Inclination
49.9926°
Eccentricity
0.0021954
Mean motion
14.81296816 rev/d
Perigee alt
609.9 km
Apogee alt
640.6 km
Semi-major
7,003.4 km
B*
1.9905e-4
RAAN
310.3512°
Arg perigee
302.4385°
Mean anomaly
57.4429°
Rev number
4,258

§ Raw data

GEESAT-4 091 65127U 25170J   26145.14809436  .00001349  00000+0  19905-3 0  99922 65127  49.9926 310.3512 0021954 302.4385  57.4429 14.81296816 42589

JSON: /api/v1/satellites/65127 · /tle

For live sub-satellite position, see the globe view (requires WebGL).

§ Visibility from observer

Set your observer location to see the next 7 days of passes ≥ 10°. The values pass through the URL so the page stays shareable.

No JS? Fill the form by hand. The geolocation button needs JavaScript.